Epoch 2006 May 25.0 TT = JDT 2453880.5
T 2006 May 7.38292 TT MPC
q 2.3785243 (2000.0) P Q
n 0.07271261 Peri. 310.13558 +0.64629879 +0.76308428
a 5.6849882 Node 0.13083 -0.61472006 +0.52103554
e 0.5816132 Incl. 12.87045 -0.45212511 +0.38239294
P 13.55
Finding Charts
Magnitudes Graph
m1 = 8.0 + 5 log d + 20.0 log r
The orbital elements are published on M.P.E.C. 2006-P12.
The charts are made with StellaNavigator Ver.2.0 for Windows
(AstroArts / ASCII).
The magnitudes graphs are made with Comet for Windows.
Copyright(C) Seiichi Yoshida (comet@aerith.net). All rights reserved.